[[{"header":{"parameterUnit":"m.s-1","parameterCategory":1,"la1":30.2991,"la2":30.254,"lo1":-89.0895,"lo2":-89.0444,"dy":0.0017,"dx":0.0017,"nx":28,"ny":28,"refTime":"2025-08-04T09:00:00:Z","depth":0,"parameterNumber":2,"parameterNumberName":"U-component_of_WINDS"},"data":[0,0,0,0,0,0,0,0,0,0,0,0,0,0,0,0,0,0,0,0,0,0,0,0,0,0,0,0,0,0,0,0,0,0,0,0,0,0,0,0,0,0,0,0,0,0,0,0,0,0,0,0,0,0,0,0,0,0,-1.7166,-1.7167,0,-1.721,-1.7211,-1.7211,-1.7182,-1.718,-1.7179,-1.7178,-1.7219,-1.7221,-1.7224,0,0,0,0,0,0,0,0,0,0,0,0,0,-1.7054,-1.7056,-1.7166,-1.7167,-1.7167,-1.721,-1.7211,-1.7211,-1.7182,-1.718,-1.7179,-1.7177,-1.7218,-1.7221,-1.7224,0,0,0,0,0,0,0,0,0,0,0,0,0,-1.7101,-1.7057,-1.7166,-1.7158,-1.7158,-1.721,-1.7211,-1.7212,-1.7182,-1.718,-1.7178,-1.7176,-1.7217,-1.7221,-1.7224,-1.7286,0,0,-1.7235,-1.7237,0,0,0,0,0,0,0,0,-1.7098,-1.7105,-1.7159,-1.7159,-1.7158,-1.7189,-1.7186,-1.7236,-1.7183,-1.7173,-1.7178,-1.7175,-1.721,-1.7214,-1.7227,-1.7288,-1.729,-1.7235,-1.7237,-1.7239,-1.724,0,0,0,0,0,0,0,-1.7095,-1.7103,-1.7184,-1.7159,-1.7159,-1.7151,-1.7156,-1.7196,-1.7202,-1.7174,-1.7172,-1.7177,-1.721,-1.7223,-1.7228,-1.729,-1.7235,-1.7238,-1.7241,-1.7242,-1.7405,-1.7407,0,0,0,0,0,0,-1.7093,-1.71,-1.7182,-1.7185,-1.7123,-1.7155,-1.716,-1.7181,-1.7202,-1.7203,-1.7179,-1.7176,-1.7218,-1.7223,-1.7229,-1.7302,-1.7239,-1.7242,-1.7244,-1.7403,-1.7405,-1.7408,0,0,0,0,0,0,-1.7091,-1.7101,-1.718,-1.7142,-1.7152,-1.7159,-1.7183,-1.7183,-1.7196,-1.7206,-1.7206,-1.7192,-1.7217,-1.7224,-1.7272,-1.7303,-1.7244,-1.7247,-1.74,-1.7403,-1.7407,-1.745,0,0,0,0,0,0,-1.7088,-1.71,-1.7124,-1.7143,-1.7154,-1.7224,-1.7185,-1.7185,-1.7203,-1.7199,-1.7218,-1.7219,-1.7216,-1.7267,-1.7276,-1.7307,-1.725,-1.7397,-1.7402,-1.7406,-1.7446,-1.7455,-1.7462,0,0,0,0,0,-1.7084,-1.7134,-1.7125,-1.7135,-1.7184,-1.7226,-1.7232,-1.7228,-1.7206,-1.7229,-1.7236,-1.7219,-1.7299,-1.7273,-1.7282,-1.7315,-1.7395,-1.74,-1.7405,-1.7442,-1.7453,-1.7462,0,0,0,0,0,0,-1.7116,-1.7136,-1.7127,-1.7185,-1.7204,-1.7221,-1.7251,-1.724,-1.7265,-1.726,-1.7253,-1.7258,-1.7309,-1.7317,-1.7287,-1.7376,-1.7343,-1.7351,-1.7368,-1.7378,-1.7386,-1.7382,-1.7253,0,0,0,0,0,-1.713,-1.7164,-1.7179,-1.7228,-1.7239,-1.7243,-1.7261,-1.7257,-1.7276,-1.7284,-1.7293,-1.7312,-1.7341,-1.7361,-1.7388,-1.7448,-1.7451,-1.7475,-1.7483,-1.7489,-1.7495,-1.7527,-1.7538,-1.7424,-1.7424,-1.7424,0,0,-1.7159,-1.7174,-1.7195,-1.7235,-1.7249,-1.7283,-1.725,-1.7287,-1.7311,-1.7289,-1.7335,-1.7344,-1.7364,-1.7418,-1.7442,-1.7426,-1.7528,-1.7496,-1.7501,-1.7503,-1.7533,-1.7544,-1.7554,-1.7428,-1.7427,-1.7426,0,0,-1.7229,-1.7244,-1.7287,-1.7303,-1.7326,-1.7329,-1.734,-1.7359,-1.7364,-1.7411,-1.7395,-1.7424,-1.7474,-1.749,-1.7504,-1.7582,-1.7567,-1.7591,-1.7632,-1.7663,-1.7672,-1.768,-1.7707,-1.7717,-1.7597,-1.7597,-1.7597,0,-1.7261,-1.7312,-1.731,-1.7349,-1.7366,-1.735,-1.7393,-1.7408,-1.7438,-1.745,-1.7433,-1.7497,-1.7509,-1.7567,-1.7586,-1.7599,-1.7609,-1.7588,-1.7671,-1.7679,-1.7686,-1.7712,-1.7722,-1.76,-1.7599,-1.7599,-1.7599,0,-1.7351,-1.7387,-1.7418,-1.745,-1.7472,-1.7512,-1.7515,-1.7537,-1.7532,-1.7537,-1.7585,-1.76,-1.763,-1.7644,-1.7638,-1.7701,-1.769,-1.7672,-1.7639,-1.77,-1.7724,-1.7734,-1.7604,-1.7603,-1.7602,-1.7601,0,0,-1.7439,-1.7471,-1.7483,-1.7497,-1.7523,-1.755,-1.759,-1.7621,-1.764,-1.7662,-1.7694,-1.7739,-1.7723,-1.7739,-1.7735,-1.7763,-1.7823,-1.7741,-1.7742,-1.7755,-1.7892,-1.7905,-1.7916,-1.7814,-1.7816,-1.7818,-1.789,0,-1.7509,-1.758,-1.758,-1.7645,-1.7678,-1.7664,-1.7699,-1.7718,-1.7724,-1.7752,-1.7758,-1.779,-1.7766,-1.7776,-1.7803,-1.781,-1.785,-1.7805,-1.7843,-1.7845,-1.7837,-1.7929,-1.7942,-1.8009,-1.79,-1.7901,-1.7902,0,-1.76,-1.7627,-1.7696,-1.7718,-1.7731,-1.7763,-1.7792,-1.7819,-1.7841,-1.7843,-1.7863,-1.7855,-1.7895,-1.7863,-1.7917,-1.7886,-1.7902,-1.7908,-1.7911,-1.7913,-1.7876,-1.7932,-1.8031,-1.804,-1.7917,-1.7916,-1.7915,0,-1.7657,-1.771,-1.7758,-1.7771,-1.7798,-1.782,-1.7832,-1.7852,-1.7871,-1.7897,-1.7909,-1.7938,-1.7954,-1.7976,-1.7977,-1.7953,-1.8032,-1.7999,-1.8034,-1.8034,-1.8049,-1.8047,-1.815,-1.8062,-1.8062,-1.8062,-1.8062,0,-1.7734,-1.7776,-1.7784,-1.7814,-1.7861,-1.7861,-1.7907,-1.7916,-1.7935,-1.7965,-1.7955,-1.7983,-1.7983,-1.8012,-1.8012,-1.8057,-1.8064,-1.8067,-1.8066,-1.8066,-1.8066,-1.8075,-1.807,-1.8064,-1.8064,-1.8063,-1.8063,0,-1.7804,-1.7811,-1.7862,-1.7885,-1.7891,-1.7925,-1.7943,-1.7971,-1.7977,-1.8016,-1.8025,-1.8034,-1.8068,-1.8071,-1.811,-1.811,-1.8164,-1.8159,-1.8157,-1.8155,-1.8189,-1.8185,-1.83,-1.8315,-1.8219,-1.8219,-1.822,0,-1.7851,-1.7884,-1.791,-1.7931,-1.7945,-1.7978,-1.7998,-1.7999,-1.8021,-1.8048,-1.8073,-1.8106,-1.8132,-1.8186,-1.8196,-1.8226,-1.822,-1.8259,-1.8224,-1.8224,-1.8219,-1.8216,-1.8219,-1.8264,-1.8265,-1.8266,-1.8267,0,-1.7935,-1.7938,-1.7968,-1.8,-1.8025,-1.805,-1.8073,-1.809,-1.8095,-1.8119,-1.8154,-1.8175,-1.8216,-1.8248,-1.8278,-1.8289,-1.8278,-1.8278,-1.8287,-1.8287,-1.8284,-1.8285,-1.8173,-1.8275,-1.8274,-1.8273,-1.8273,-1.8273,-1.7994,-1.8023,-1.8046,-1.808,-1.8099,-1.8121,-1.8149,-1.8159,-1.8189,-1.8223,-1.8223,-1.8261,-1.8282,-1.8321,-1.8335,-1.8365,-1.8352,-1.8365,-1.8368,-1.8371,-1.8374,-1.8282,-1.837,-1.837,-1.837,-1.837,-1.837,0,-1.8076,-1.8092,-1.8123,-1.8157,-1.8184,-1.8175,-1.82,-1.8223,-1.8258,-1.8279,-1.8306,-1.8347,-1.8379,-1.8392,-1.8423,-1.8445,-1.844,-1.8452,-1.845,-1.8452,-1.8385,-1.8373,-1.8455,-1.8455,-1.8455,-1.8455,-1.8455,-1.8455,-1.8122,-1.8169,-1.8175,-1.8232,-1.8246,-1.8285,-1.8301,-1.8321,-1.8339,-1.8385,-1.8412,-1.8422,-1.844,-1.8472,-1.8501,-1.8504,-1.8515,-1.8529,-1.853,-1.8466,-1.8457,-1.8449,-1.8438,-1.8532,-1.8532,-1.8595,-1.8596,-1.8596]},{"header":{"parameterUnit":"m.s-1","parameterCategory":1,"la1":30.2991,"la2":30.254,"lo1":-89.0895,"lo2":-89.0444,"dy":0.0017,"dx":0.0017,"nx":28,"ny":28,"refTime":"2025-08-04T09:00:00:Z","depth":0,"parameterNumber":3,"parameterNumberName":"V-component_of_WINDS"},"data":[0,0,0,0,0,0,0,0,0,0,0,0,0,0,0,0,0,0,0,0,0,0,0,0,0,0,0,0,0,0,0,0,0,0,0,0,0,0,0,0,0,0,0,0,0,0,0,0,0,0,0,0,0,0,0,0,0,0,-0.7249,-0.725,0,-0.7309,-0.7309,-0.731,-0.7379,-0.738,-0.7381,-0.7382,-0.7443,-0.7444,-0.7445,0,0,0,0,0,0,0,0,0,0,0,0,0,-0.7196,-0.7196,-0.7249,-0.725,-0.725,-0.7308,-0.7309,-0.731,-0.7379,-0.738,-0.7381,-0.7383,-0.7443,-0.7444,-0.7445,0,0,0,0,0,0,0,0,0,0,0,0,0,-0.7233,-0.7197,-0.7249,-0.7292,-0.7296,-0.7308,-0.7309,-0.731,-0.7379,-0.738,-0.7382,-0.7383,-0.7443,-0.7444,-0.7445,-0.742,0,0,-0.7448,-0.7448,0,0,0,0,0,0,0,0,-0.7231,-0.7235,-0.7285,-0.7289,-0.7294,-0.7338,-0.7313,-0.7347,-0.7378,-0.7347,-0.7382,-0.7384,-0.7407,-0.7411,-0.7419,-0.7422,-0.7425,-0.7448,-0.7449,-0.7449,-0.7449,0,0,0,0,0,0,0,-0.7228,-0.7233,-0.7273,-0.7285,-0.7291,-0.7308,-0.7315,-0.732,-0.7368,-0.735,-0.7355,-0.7361,-0.741,-0.7418,-0.7421,-0.7426,-0.7448,-0.7449,-0.7449,-0.745,-0.7413,-0.7411,0,0,0,0,0,0,-0.7219,-0.723,-0.7271,-0.7274,-0.7266,-0.7308,-0.7316,-0.7322,-0.7368,-0.7376,-0.736,-0.7364,-0.7415,-0.742,-0.7423,-0.7396,-0.7449,-0.745,-0.745,-0.7414,-0.7412,-0.7411,0,0,0,0,0,0,-0.7218,-0.7222,-0.7268,-0.7254,-0.7261,-0.7307,-0.7314,-0.7323,-0.733,-0.7375,-0.7384,-0.7359,-0.7417,-0.7422,-0.742,-0.7399,-0.745,-0.7451,-0.7416,-0.7414,-0.7411,-0.7342,0,0,0,0,0,0,-0.7216,-0.7221,-0.7212,-0.7253,-0.7262,-0.7263,-0.7313,-0.7323,-0.7332,-0.7338,-0.7377,-0.7385,-0.7418,-0.7418,-0.7421,-0.7402,-0.7452,-0.7418,-0.7415,-0.7412,-0.7347,-0.7338,-0.733,0,0,0,0,0,-0.7214,-0.719,-0.7211,-0.7215,-0.725,-0.7262,-0.7267,-0.7306,-0.733,-0.7321,-0.735,-0.7383,-0.7402,-0.7417,-0.7421,-0.7402,-0.7419,-0.7416,-0.7412,-0.735,-0.734,-0.7331,0,0,0,0,0,0,-0.7144,-0.7196,-0.722,-0.7208,-0.723,-0.7274,-0.7263,-0.7293,-0.7309,-0.7314,-0.7362,-0.7371,-0.7363,-0.7383,-0.7399,-0.738,-0.7416,-0.7413,-0.7367,-0.7357,-0.7349,-0.7344,-0.7453,0,0,0,0,0,-0.7128,-0.7133,-0.7178,-0.7163,-0.7173,-0.7216,-0.7223,-0.7251,-0.7276,-0.7285,-0.7314,-0.7337,-0.7348,-0.7354,-0.7367,-0.7351,-0.736,-0.7339,-0.7331,-0.7325,-0.7321,-0.7314,-0.7305,-0.7399,-0.7399,-0.7399,0,0,-0.7093,-0.7122,-0.7122,-0.715,-0.7171,-0.7175,-0.7223,-0.7226,-0.7229,-0.7286,-0.7285,-0.7308,-0.7337,-0.7327,-0.7325,-0.7344,-0.7297,-0.732,-0.7314,-0.7314,-0.7309,-0.73,-0.7292,-0.7396,-0.7397,-0.7397,0,0,-0.7033,-0.7055,-0.7045,-0.7065,-0.7095,-0.7125,-0.7122,-0.7161,-0.7178,-0.7179,-0.7222,-0.7227,-0.7245,-0.7264,-0.7276,-0.7223,-0.7255,-0.7226,-0.7183,-0.7176,-0.7168,-0.7162,-0.7143,-0.7135,-0.7223,-0.7223,-0.7223,0,-0.6986,-0.6993,-0.7037,-0.7036,-0.7047,-0.71,-0.709,-0.7107,-0.714,-0.7147,-0.7168,-0.7192,-0.7215,-0.721,-0.7198,-0.7206,-0.7205,-0.7221,-0.7166,-0.716,-0.7155,-0.7137,-0.7129,-0.7219,-0.722,-0.722,-0.722,0,-0.6934,-0.6939,-0.6928,-0.6958,-0.6968,-0.6963,-0.7006,-0.7011,-0.7039,-0.7066,-0.7067,-0.7097,-0.7116,-0.7118,-0.7145,-0.7118,-0.7129,-0.7157,-0.7193,-0.7141,-0.7125,-0.7119,-0.7214,-0.7215,-0.7216,-0.7217,0,0,-0.6828,-0.6884,-0.6879,-0.6894,-0.6932,-0.6936,-0.6935,-0.6954,-0.6957,-0.6979,-0.6978,-0.6993,-0.702,-0.7033,-0.7064,-0.7057,-0.7013,-0.7087,-0.7088,-0.7071,-0.6984,-0.6961,-0.6952,-0.7035,-0.7034,-0.7033,-0.6981,0,-0.6773,-0.6772,-0.6812,-0.68,-0.6805,-0.6856,-0.6854,-0.6878,-0.6903,-0.6912,-0.6941,-0.695,-0.6985,-0.6993,-0.699,-0.7019,-0.6996,-0.7024,-0.7034,-0.7034,-0.7024,-0.6944,-0.692,-0.6869,-0.6976,-0.6975,-0.6974,0,-0.6708,-0.6726,-0.6714,-0.6753,-0.6757,-0.6755,-0.6776,-0.6784,-0.6812,-0.6831,-0.6846,-0.6881,-0.6883,-0.6918,-0.6921,-0.6939,-0.6946,-0.6961,-0.696,-0.6961,-0.6999,-0.6942,-0.6854,-0.6846,-0.6964,-0.6965,-0.6966,0,-0.663,-0.6652,-0.6648,-0.6659,-0.6705,-0.6702,-0.6721,-0.6751,-0.676,-0.678,-0.6786,-0.6805,-0.6815,-0.6829,-0.6868,-0.6891,-0.6866,-0.6905,-0.6881,-0.688,-0.6872,-0.6872,-0.6783,-0.6879,-0.688,-0.688,-0.688,0,-0.6563,-0.6554,-0.6614,-0.6611,-0.6602,-0.6649,-0.6639,-0.6664,-0.669,-0.6693,-0.6739,-0.6741,-0.6793,-0.6801,-0.6833,-0.683,-0.6834,-0.685,-0.6857,-0.6844,-0.6842,-0.6848,-0.6852,-0.6878,-0.6878,-0.6879,-0.6879,0,-0.6474,-0.6514,-0.6513,-0.6557,-0.6568,-0.656,-0.6598,-0.6597,-0.6627,-0.663,-0.6634,-0.668,-0.6692,-0.6733,-0.6755,-0.6776,-0.6763,-0.678,-0.6753,-0.6758,-0.6732,-0.6733,-0.6642,-0.6632,-0.6736,-0.6735,-0.6734,0,-0.6428,-0.6422,-0.6466,-0.6471,-0.6488,-0.6496,-0.6506,-0.6553,-0.6561,-0.6594,-0.6589,-0.6605,-0.662,-0.6637,-0.6672,-0.669,-0.6706,-0.6674,-0.6709,-0.6696,-0.6704,-0.6703,-0.6703,-0.6665,-0.6664,-0.6662,-0.6662,0,-0.6341,-0.6361,-0.6374,-0.6393,-0.6404,-0.6421,-0.6442,-0.6444,-0.6496,-0.6503,-0.6516,-0.6527,-0.6551,-0.6566,-0.6589,-0.661,-0.6644,-0.665,-0.6646,-0.6631,-0.6615,-0.6622,-0.673,-0.6652,-0.6653,-0.6653,-0.6654,-0.6654,-0.6271,-0.6268,-0.6298,-0.6311,-0.6332,-0.635,-0.6351,-0.6381,-0.6393,-0.6415,-0.6443,-0.6452,-0.6482,-0.6517,-0.6535,-0.6543,-0.6562,-0.6555,-0.6553,-0.655,-0.6544,-0.6616,-0.6548,-0.6548,-0.6548,-0.6549,-0.6549,0,-0.6185,-0.6208,-0.6219,-0.6246,-0.6256,-0.6289,-0.6313,-0.6319,-0.6327,-0.6352,-0.6366,-0.6381,-0.6396,-0.6434,-0.6452,-0.6452,-0.6468,-0.6455,-0.6455,-0.6459,-0.6526,-0.6528,-0.6442,-0.6442,-0.6442,-0.6442,-0.6442,-0.6442,-0.6141,-0.6138,-0.6162,-0.617,-0.6193,-0.6203,-0.6214,-0.6231,-0.6251,-0.6266,-0.6278,-0.6303,-0.6333,-0.6355,-0.637,-0.6381,-0.6385,-0.6366,-0.6382,-0.6444,-0.6454,-0.6464,-0.6465,-0.6367,-0.6367,-0.6314,-0.6313,-0.6313]}]]